Location: Moscow
(55.7500°N, 37.5830°E)
Time: 17:50:31
(UTC+03:00)

ISS - Pass Details

Date: 21 March 2026
Orbit: 416 x 425 km, 51.6° (Epoch: 19 April)

Event Time Altitude Azimuth Distance (km) Brightness Sun altitude
Rises 20:20:10 0° 268° (W) 2,389 1.4 -13.8°
Reaches altitude 10° 20:22:22 10° 260° (W) 1,520 0.0 -14.1°
Maximum altitude 20:25:31 35° 193° (SSW) 706 -2.7 -14.5°
Enters shadow 20:26:46 26° 149° (SSE) 884 -2.6 -14.7°
